Mayport NS, FL

8:43 PM EDT on April 22, 2018 (GMT -0400)
Mayport Naval Station / Adm. David L. McDonald Field

Weather History for KNRB - January, 2013

Change the Weather History Date:

Friday, January 18, 2013

  Actual Average Record
Temperature  
Mean Temperature 49 °F -  
Max Temperature 55 °F 61 °F 79 °F (2017)
Min Temperature 43 °F 46 °F 26 °F (2018)
Degree Days  
Heating Degree Days 16    
Moisture  
Dew Point 42 °F    
Average Humidity 69    
Maximum Humidity 82    
Minimum Humidity 57    
Precipitation  
Precipitation 0.02 in - - ()
Sea Level Pressure  
Sea Level Pressure 30.32 in    
Wind  
Wind Speed 15 mph (NNE)    
Max Wind Speed 25 mph    
Max Gust Speed 37 mph    
Visibility 10 miles    
Events      
Averages and records for this station are not official NWS values.
T = Trace of Precipitation, MM = Missing Value Source: NWS Daily Summary

Daily Weather History Graph

Daily Weather History Graph

Search for Another Location

Airport or City:

Astronomy

Jan. 18, 2013 Rise Set
Actual Time 7:22 AM EST 5:50 PM EST
Civil Twilight 6:56 AM EST 6:16 PM EST
Nautical Twilight 6:27 AM EST 6:45 PM EST
Astronomical Twilight 5:58 AM EST 7:14 PM EST
Moon 11:34 AM EST (1/18) 12:06 AM EST (1/18)
Length of Visible Light 11h 19m
Length of Day
10h 27m
Waxing Crescent, 47% of the Moon is Illuminated
Jan 18
Waxing Crescent
Jan 18
First Quarter
Jan 26
Full
Feb 3
Last Quarter
Feb 10
New

Hourly Weather History & Observations

Time (EST) Temp. Windchill Dew Point Humidity Pressure Visibility Wind Dir Wind Speed Gust Speed Precip Events Conditions
12:27 AM 44.6 °F 39.2 °F 33.8 °F 66% 30.16 in 10.0 mi NW 10.4 mph 19.6 mph N/A   Overcast
12:52 AM 43.0 °F 37.7 °F 34.0 °F 71% 30.17 in 10.0 mi NW 9.2 mph - N/A   Scattered Clouds
1:52 AM 43.0 °F 38.8 °F 34.0 °F 71% 30.19 in 10.0 mi Variable 6.9 mph 16.1 mph N/A   Overcast
2:52 AM 43.0 °F 39.5 °F 35.1 °F 74% 30.20 in 10.0 mi NW 5.8 mph - N/A   Overcast
3:52 AM 43.0 °F 38.8 °F 36.0 °F 76% 30.21 in 10.0 mi NNW 6.9 mph - N/A   Overcast
4:52 AM 45.0 °F 40.1 °F 37.0 °F 74% 30.22 in 10.0 mi NNW 9.2 mph - N/A   Overcast
5:52 AM 46.0 °F 41.4 °F 39.0 °F 76% 30.25 in 10.0 mi North 9.2 mph - N/A   Overcast
6:52 AM 46.9 °F - 41.0 °F 80% 30.27 in 10.0 mi NNW 8.1 mph - N/A   Overcast
7:09 AM 48.2 °F - 42.8 °F 82% 30.28 in 10.0 mi NNE 21.9 mph 27.6 mph N/A   Overcast
7:52 AM 53.1 °F - 43.0 °F 69% 30.30 in 10.0 mi NNE 24.2 mph 33.4 mph 0.02 in   Mostly Cloudy
8:21 AM 53.6 °F - 42.8 °F 67% 30.32 in 10.0 mi NNE 25.3 mph 36.8 mph N/A   Mostly Cloudy
8:52 AM 54.0 °F - 44.1 °F 69% 30.33 in 10.0 mi NNE 24.2 mph 32.2 mph N/A   Mostly Cloudy
9:52 AM 54.0 °F - 44.1 °F 69% 30.37 in 10.0 mi NNE 25.3 mph 32.2 mph N/A   Mostly Cloudy
10:52 AM 55.0 °F - 44.1 °F 67% 30.39 in 10.0 mi NNE 21.9 mph 31.1 mph N/A   Mostly Cloudy
11:52 AM 55.9 °F - 44.1 °F 64% 30.38 in 10.0 mi NE 23.0 mph 32.2 mph N/A   Mostly Cloudy
12:52 PM 55.9 °F - 44.1 °F 64% 30.37 in 10.0 mi NNE 25.3 mph 31.1 mph N/A   Mostly Cloudy
1:52 PM 55.9 °F - 44.1 °F 64% 30.37 in 10.0 mi NNE 21.9 mph 29.9 mph N/A   Mostly Cloudy
2:52 PM 55.9 °F - 43.0 °F 62% 30.37 in 10.0 mi NNE 23.0 mph 29.9 mph N/A   Mostly Cloudy
3:52 PM 55.9 °F - 41.0 °F 57% 30.37 in 10.0 mi NNE 21.9 mph 32.2 mph N/A   Mostly Cloudy
4:52 PM 55.0 °F - 41.0 °F 59% 30.39 in 10.0 mi NNE 20.7 mph 28.8 mph N/A   Scattered Clouds
5:52 PM 54.0 °F - 42.1 °F 64% 30.40 in 10.0 mi NNE 19.6 mph 29.9 mph N/A   Scattered Clouds
6:52 PM 54.0 °F - 43.0 °F 66% 30.41 in 10.0 mi NNE 20.7 mph 29.9 mph N/A   Overcast
7:52 PM 54.0 °F - 44.1 °F 69% 30.40 in 10.0 mi NNE 19.6 mph 26.5 mph N/A   Mostly Cloudy
8:52 PM 55.0 °F - 44.1 °F 67% 30.40 in 10.0 mi NNE 23.0 mph 29.9 mph N/A   Partly Cloudy
9:52 PM 55.0 °F - 46.0 °F 72% 30.40 in 10.0 mi NNE 20.7 mph 29.9 mph N/A   Mostly Cloudy
10:52 PM 55.9 °F - 46.9 °F 72% 30.37 in 10.0 mi NNE 18.4 mph 27.6 mph N/A   Overcast
11:52 PM 55.9 °F - 48.0 °F 75% 30.36 in 10.0 mi NNE 17.3 mph 27.6 mph N/A   Overcast